Weather in Mozhayskoye

Russia / Belgorod Oblast     50°43′47″N   37°35′26″E
temp.,
°C
wind,
m/s
gust,
m/s
humid.,
%
clouds,
%
prec.,
mm/h
press.,
hPa
HPBL,
m
8 may, sat
sat800:00+9sse51270100 0.0 1014250
03:00+10sse71670100 0.0 1013491
06:00+10sse71674100 0.0 1011576
09:00+11sse71383100 0.8 1010531
12:00+12s81682100 0.4 10091004
15:00+11s71694100 4.8 10071154
18:00+12sw71293100 1.8 1006688
21:00+10w71291100 1.8 1008604
9 may, sun
sun900:00+5wnw71294100 0.1 1011800
03:00+5wnw71190100 0.3 10121079
06:00+5nw61187100 0.1 1014901
09:00+6nw71079100 0.1 1016947
12:00+10nw795399 0.1 10171989
15:00+10nnw8105581 0.1 10191846
18:00+9nnw6106243 0.1 10201762
21:00+5n410753 0.1 1023335
10 may, mon
mon1000:00+3nw49855 0.0 1024178
03:00+4nw412845 0.0 1026261
06:00+4nnw5147727 0.0 1026356
09:00+10n712565 0.0 10261376
12:00+12n9124640 0.0 10241788
15:00+13nne9124981 0.0 10231782
18:00+12nne8146088 0.0 10231483
21:00+10nne91555100 0.0 10221000
11 may, tue
tue1100:00+9nne91873100 0.3 1021729
03:00+9nne91674100 0.4 1020647
06:00+9nne81781100 0.2 1020584
09:00+9ne81495100 3.3 1020681
12:00+10e7129098 0.1 10211030
15:00+14e8125833 0.2 10211737
18:00+12ese713706 0.0 10221437
21:00+7ene49871 0.0 1022193
12 may, wed
wed1200:00+6ene499135 0.0 1022203
03:00+7e5138573 0.0 1021322
06:00+8ese6148496 0.0 1021663
09:00+12ese6117291 0.0 10201176
12:00+14se596684 0.3 10201356
15:00+14ese4872100 0.6 1019817
18:00+15ese487199 0.3 1018340
21:00+12se378098 0.6 1017143